Regional Weather Roundup
Issued by NWS

Home | Current Version | Previous Version | Text Only | Print | Product List | Glossary Off
Versions: 1 2 3 4 5 6 7 8 9 10 11 12 13 14 15 16 17 18 19 20 21 22 23 24 25 26 27 28 29 30 31 32 33 34 35 36 37 38 39 40 41 42 43 44 45 46 47 48 49 50

000
ASUS43 KIND 242109
RWRIN

WEATHER ROUNDUP FOR INDIANA
NATIONAL WEATHER SERVICE INDIANAPOLIS IN
500 PM EDT FRI MAR 24 2017

NOTE: "FAIR" INDICATES FEW OR NO CLOUDS BELOW 12,000 FEET WITH NO
SIGNIFICANT WEATHER AND/OR OBSTRUCTIONS TO VISIBILITY.

* - STATION DOES NOT REPORT WEATHER SUCH AS PRECIPITATION OR FOG.

+ - STATION NOT QUALITY CONTROLLED BY THE NATIONAL WEATHER SERVICE.
    USE DATA WITH CAUTION...ESPECIALLY DEWPOINT AND RELATIVE
    HUMIDITY OBSERVATIONS.

INZ001>003-010>013-019-020-242200-
NORTHWEST INDIANA

CITY           SKY/WX    TMP DP  RH WIND       PRES   REMARKS
GARY /AIRPORT/ MOSUNNY   81  39  22 W17G45    29.90S
KNOX *+        MOSUNNY   75  27  16 SW25G31   29.94S
LA PORTE +     MOSUNNY   76  53  43 SW28      29.93S
MICHIGAN CITY+ MOSUNNY   79  48  34 SW20G28   29.91S
MONTICELLO +   SUNNY     75  55  49 S23G30    29.96F
RENSSELAER +   PTSUNNY   75  54  46 S25G35    29.96R
VALPARAISO     PTSUNNY   79  53  40 SW25G35   29.93S

$$

LMZ046-743>745-242200-
SOUTHERN LAKE MICHIGAN

STATION/POSITION TIME  TEMP    WIND        PRES    WAVE
                       AIR SEA DIR/SP/G            HT
                 (UTC) (F)     (DEG/KT/KT) (MB)    (FT)
BURNS HARBOR     2040   75     220/ 27/ 32 1012.5F
MICHIGAN CITY    2040   68     230/ 18/ 21   N/A

$$

INZ004-005-014>016-021>024-242200-
NORTH CENTRAL INDIANA

CITY           SKY/WX    TMP DP  RH WIND       PRES   REMARKS
ELKHART        SUNNY     77  48  36 SW21G28   29.93F
GOSHEN         MOSUNNY   76  52  43 SW20G38   29.95F
LOGANSPORT +   MOSUNNY   73  54  49 S29       29.99F
PERU/GRISSOM   SUNNY     74  56  53 SW24G31   29.98F
ROCHESTER +    SUNNY     79  55  44 S16G26    29.98S
SOUTH BEND     PTSUNNY   77  52  41 SW22G36   29.92F
WARSAW +       PTSUNNY   73  54  49 SW13G21   29.97S

$$

INZ006>009-017-018-025>027-242200-
NORTHEAST INDIANA

CITY           SKY/WX    TMP DP  RH WIND       PRES   REMARKS
ANGOLA *+      MOSUNNY   75  70  83 SW21      29.95S
AUBURN +       SUNNY     75  52  43 SW14G25   29.98F
FORT WAYNE     MOSUNNY   75  54  47 SW24G36   30.00S
HUNTINGTON +   PTSUNNY   72  55  53 SW20G30   30.00S
KENDALLVILLE + MOSUNNY   74  54  48 SW22G29   29.97S

$$

INZ028-029-035-036-043>045-051>053-242200-
WEST CENTRAL INDIANA

CITY           SKY/WX    TMP DP  RH WIND       PRES   REMARKS
CRAWFORDSVL +  MOSUNNY   71  55  57 S23G31    30.02F
GREENCASTLE +  MOSUNNY   70  52  52 SW10G25   30.05F
LAFAYETTE      MOSUNNY   73  56  54 S15G31    29.98F
TERRE HAUTE    MOSUNNY   73  53  49 S23G33    30.03F

$$

INZ030>032-037>040-046>048-054>057-064-065-242200-
CENTRAL INDIANA

CITY           SKY/WX    TMP DP  RH WIND       PRES   REMARKS
CP ATTERBURY + CLOUDY    73  52  46 SW17G26   30.07F
COLUMBUS       SUNNY     73  54  49 SW17G28   30.07F
FISHERS *+     PTSUNNY   72  57  60 SW21G26   30.05
FRANKFORT +    MOSUNNY   75  56  51 SW25G33   30.02F
GREENWOOD *+   MOSUNNY   74  55  50 SW16G25   30.07F
INDIANAPOLIS   PTSUNNY   75  54  47 SW25G37   30.04F
-EAGLE CREEK   MOSUNNY   73  53  49 SW20G37   30.04F
KOKOMO +       MOSUNNY   73  55  53 SW26G35   30.02F
MARION +       MOSUNNY   73  55  51 SW24G35   30.03F
MT COMFORT *+    N/A     73  54  49 SW18      30.06F
SHELBYVILLE    PTSUNNY   75  53  46 S18G26    30.06F
ZIONSVILLE +   MOSUNNY   72  54  53 SW26G32   30.04F

$$

INZ033-034-041-042-049-050-058-059-242200-
EAST CENTRAL INDIANA

CITY           SKY/WX    TMP DP  RH WIND       PRES   REMARKS
MUNCIE         MOSUNNY   75  54  47 SW18G33   30.04R
RICHMOND +     PTSUNNY   72  52  49 SW23G30   30.09F HAZE

$$

INZ060-061-067>069-081>083-085>088-242200-
SOUTHWEST INDIANA

CITY           SKY/WX    TMP DP  RH WIND       PRES   REMARKS
EVANSVILLE     CLOUDY    75  53  46 S22G32    30.09F
HUNTINGBURG *+ PTSUNNY   74  55  51 SW20G28   30.10F
WASHINGTON +   PTSUNNY   74  52  46 CALM      30.07F

$$

INZ062-063-066-070>080-084-089>092-242200-
SOUTH CENTRAL AND SOUTHEAST INDIANA

CITY           SKY/WX    TMP DP  RH WIND       PRES   REMARKS
BEDFORD +      PTSUNNY   73  52  46 S15G25    30.09F
BLOOMINGTON    PTSUNNY   74  52  46 S20G25    30.08F
MADISON *+     CLOUDY    73  50  43 SW12G20   30.13F
NORTH VERNON + PTSUNNY   73  52  46 S14       30.11F
SEYMOUR +      PTSUNNY   75  54  46 SW16      30.08F

$$





USA.gov is the U.S. government's official web portal to all federal, state and local government web resources and services.